Location: Christianberg
(48.9086°N, 14.0209°E)
Time: 22:40:26
(UTC+00:00)

FALCON 9 DEB - Pass Details

Date: 20 June 2021
Orbit: 362 x 379 km, 53.0° (Epoch: 04 August)

Event Time Altitude Azimuth Distance (km) Brightness Sun altitude
Rises 00:38:11 0° 291° (WNW) 2,276 6.8 -14.8°
Reaches altitude 10° 00:40:18 10° 298° (WNW) 1,419 5.8 -14.6°
Maximum altitude 00:43:23 48° 14° (NNE) 514 3.9 -14.4°
Drops below altitude 10° 00:46:28 10° 91° (E) 1,410 6.0 -14.2°
Sets 00:48:33 0° 97° (E) 2,259 7.0 -14.1°
